Regional Weather Roundup
Issued by NWS

Home | Current Version | Previous Version | Graphics & Text | Print | Product List | Glossary On
Versions: 1 2 3 4 5 6 7 8 9 10 11 12 13 14 15 16 17 18 19 20 21 22 23 24 25 26 27 28 29 30 31 32 33 34 35 36 37 38 39 40 41 42 43 44 45 46 47 48 49 50
741
ASUS44 KJAN 211203
RWRMS

MISSISSIPPI HOURLY WEATHER ROUNDUP
NATIONAL WEATHER SERVICE JACKSON MS
700 AM CDT SUN SEP 21 2014

NOTE: "FAIR: INDICATES FEW OR NO CLOUDS BELOW 12,000 FEET WITH NO
SIGNIFICANT WEATHER AND/OR OBSTRUCTIONS TO VISIBILITY.

MSZ001>002-007>008-010>013-018>021-025>028-034>036-211300-
NORTHWEST MISSISSIPPI

CITY           SKY/WX    TMP DP  RH WIND       PRES   REMARKS
CLARKSDALE     FAIR      66  66 100 CALM      30.03R
CLEVELAND      FAIR      69  68  98 CALM      30.02R
GREENWOOD      CLEAR     66  63  90 CALM      30.03R
6HR MIN TEMP:  66; 6HR MAX TEMP:  72;

GREENVILLE     CLEAR     69  66  90 S5        30.02R
6HR MIN TEMP:  67; 6HR MAX TEMP:  74;

GRENADA        FAIR      64  64 100 CALM      30.04R
OLIVE BRANCH   PTCLDY    66  66 100 S6        30.02R
OXFORD         FAIR      66  64  94 CALM      30.05R
TUNICA         SUNNY     66  64  94 S3        30.02R
$$

MSZ003>006-009-014>017-022>024-029>033-037>039-211300-
NORTHEAST MISSISSIPPI

CITY           SKY/WX    TMP DP  RH WIND       PRES   REMARKS
COLUMBUS AFB   CLEAR     63  63 100 CALM      30.03R
6HR MIN TEMP:  62; 6HR MAX TEMP:  68;

CORINTH        FOG       63  61  94 CALM      30.01S VSB<1/4
GOLDN TRIANGLE CLEAR     63  57  82 CALM      30.04R
STARKVILLE     FAIR      61  61 100 CALM      30.04R FOG
TUPELO         CLEAR     66  63  90 CALM      30.03R
6HR MIN TEMP:  66; 6HR MAX TEMP:  71;

$$

MSZ040-058-211300-
CENTRAL MISSISSIPPI

CITY           SKY/WX    TMP DP  RH WIND       PRES   REMARKS
JACKSON INTL   PTCLDY    65  64  97 CALM      30.05R
6HR MIN TEMP:  64; 6HR MAX TEMP:  72;

JACKSON HAWKNS CLEAR     68  65  90 CALM      30.05R FOG
6HR MIN TEMP:  68; 6HR MAX TEMP:  74;

MERIDIAN KEY   CLEAR     61  60  97 CALM      30.05R
6HR MIN TEMP:  61; 6HR MAX TEMP:  66;

MERIDIAN NAS   CLEAR     63  61  93 CALM      30.05R
6HR MIN TEMP:  61; 6HR MAX TEMP:  67;

RAYMOND        HAZE      64  59  82 CALM      30.05R VSB 1/2
VICKSBURG      CLEAR     66  64  93 CALM      30.04R
6HR MIN TEMP:  65; 6HR MAX TEMP:  69;

$$

MSZ059>079-211300-
SOUTH MISSISSIPPI

CITY           SKY/WX    TMP DP  RH WIND       PRES   REMARKS
BROOKHAVEN     FAIR      63  63 100 CALM      30.06R FOG
COLUMBIA       FAIR      61  61 100 CALM      30.03S FOG
HATTIESBURG    CLEAR     64  63  96 CALM      30.05R
6HR MIN TEMP:  64; 6HR MAX TEMP:  69;

MCCOMB         CLEAR     66  64  93 CALM      30.04R
6HR MIN TEMP:  65; 6HR MAX TEMP:  72;

NATCHEZ        CLEAR     68  64  88 CALM      30.04S
6HR MIN TEMP:  68; 6HR MAX TEMP:  70;

PINE BELT      CLEAR    N/A N/A N/A CALM      30.05S
$$

MSZ080>082-211300-
COASTAL MISSISSIPPI

CITY           SKY/WX    TMP DP  RH WIND       PRES   REMARKS
BAY ST LOUIS   CLEAR     68  63  83 VRB5      30.01
BILOXI         CLEAR     69  66  90 NE7       30.01R
6HR MIN TEMP:  69; 6HR MAX TEMP:  73;

PASCAGOULA     CLEAR     66  65  96 N5        30.01R
6HR MIN TEMP:  66; 6HR MAX TEMP:  70;

GULFPORT       CLEAR     69  65  86 N5        30.01R
6HR MIN TEMP:  68; 6HR MAX TEMP:  72;

$$



USA.gov is the U.S. government's official web portal to all federal, state and local government web resources and services.